Location: Strawberry
(45.6646°N, 111.9596°W)
Time: 12:05:40
(UTC+00:00)

deb Explorer IX - Visible Passes

Search period start: 28 September 2022 00:00
Search period end: 08 October 2022 00:00
Orbit: 531 x 1065 km, 38.8° (Epoch: 27 September)

Date Brightness Start Highest point End Pass type
(mag) Time Alt. Az. Time Alt. Az. Time Alt. Az.
05 Oct ? 12:37:12 10° SSW 12:40:38 20° SSE 12:44:26 10° ESE visible
06 Oct ? 12:07:04 10° SSW 12:10:12 18° SSE 12:13:36 10° ESE visible
07 Oct ? 11:37:53 13° S 11:39:46 17° SSE 11:42:46 10° ESE visible
